Time,TemperatureF,DewpointF,PressureIn,WindDirection,WindDirectionDegrees,WindSpeedMPH,WindSpeedGustMPH,Humidity,HourlyPrecipIn,Conditions,Clouds,dailyrainin,SolarRadiationWatts/m^2,SoftwareType,DateUTC
2013-04-18 00:01:00,36.0,26.8,30.45,NNW,333,3.0,4.0,69,0.00,,---,0.00,0.00,VWS V14.01,2013-04-18 07:01:00,
2013-04-18 00:07:00,36.0,27.2,30.45,NNW,342,3.0,5.0,70,0.00,,---,0.00,0.00,VWS V14.01,2013-04-18 07:07:00,
2013-04-18 00:12:00,35.9,27.1,30.44,NNE,30,5.0,6.0,70,0.00,,---,0.00,0.00,VWS V14.01,2013-04-18 07:12:00,
2013-04-18 00:17:00,35.7,27.2,30.44,North,355,3.0,6.0,71,0.00,,---,0.00,0.00,VWS V14.01,2013-04-18 07:17:00,
2013-04-18 00:22:00,35.4,27.0,30.44,North,355,2.0,6.0,71,0.00,,---,0.00,0.00,VWS V14.01,2013-04-18 07:22:00,
2013-04-18 00:27:00,35.3,27.2,30.44,NNE,25,4.0,6.0,72,0.00,,---,0.00,0.00,VWS V14.01,2013-04-18 07:27:00,
2013-04-18 00:32:00,35.2,27.1,30.44,NNE,29,4.0,8.0,72,0.00,,---,0.00,0.00,VWS V14.01,2013-04-18 07:32:00,
2013-04-18 00:37:00,35.2,27.4,30.44,North,9,4.0,8.0,73,0.00,,---,0.00,0.00,VWS V14.01,2013-04-18 07:37:00,
2013-04-18 00:41:00,35.1,27.3,30.44,NNE,22,5.0,8.0,73,0.00,,---,0.00,0.00,VWS V14.01,2013-04-18 07:41:00,
2013-04-18 00:46:00,35.0,27.2,30.44,NNE,28,5.0,8.0,73,0.00,,---,0.00,0.00,VWS V14.01,2013-04-18 07:46:00,
2013-04-18 00:51:00,35.0,27.2,30.44,North,349,3.0,8.0,73,0.00,,---,0.00,0.00,VWS V14.01,2013-04-18 07:51:00,
2013-04-18 00:56:00,34.8,27.0,30.44,NNW,347,3.0,8.0,73,0.00,,---,0.00,0.00,VWS V14.01,2013-04-18 07:56:00,
2013-04-18 01:01:00,34.7,27.0,30.44,North,5,3.0,6.0,73,0.00,,---,0.00,0.00,VWS V14.01,2013-04-18 08:01:00,
2013-04-18 01:06:00,34.7,27.3,30.44,NW,304,6.0,7.0,74,0.00,,---,0.00,0.00,VWS V14.01,2013-04-18 08:06:00,
2013-04-18 01:11:00,34.6,27.2,30.44,NNW,344,2.0,7.0,74,0.00,,---,0.00,0.00,VWS V14.01,2013-04-18 08:11:00,
2013-04-18 01:16:00,34.5,27.4,30.44,North,5,4.0,8.0,75,0.00,,---,0.00,0.00,VWS V14.01,2013-04-18 08:16:00,
2013-04-18 01:21:00,34.5,27.1,30.44,North,9,4.0,8.0,74,0.00,,---,0.00,0.00,VWS V14.01,2013-04-18 08:21:00,
2013-04-18 01:26:00,34.6,27.5,30.44,NNE,18,6.0,9.0,75,0.00,,---,0.00,0.00,VWS V14.01,2013-04-18 08:26:00,
2013-04-18 01:31:00,34.5,27.4,30.44,North,9,3.0,5.0,75,0.00,,---,0.00,0.00,VWS V14.01,2013-04-18 08:31:00,
2013-04-18 01:36:00,34.4,27.3,30.44,NE,36,3.0,9.0,75,0.00,,---,0.00,0.00,VWS V14.01,2013-04-18 08:36:00,
2013-04-18 01:41:00,34.4,27.3,30.44,North,355,4.0,9.0,75,0.00,,---,0.00,0.00,VWS V14.01,2013-04-18 08:41:00,
2013-04-18 01:46:00,34.3,27.2,30.44,NNW,339,4.0,9.0,75,0.00,,---,0.00,0.00,VWS V14.01,2013-04-18 08:46:00,
2013-04-18 01:51:00,34.2,27.4,30.44,North,5,3.0,9.0,76,0.00,,---,0.00,0.00,VWS V14.01,2013-04-18 08:51:00,
2013-04-18 01:56:00,34.2,27.4,30.43,NNE,17,3.0,9.0,76,0.00,,---,0.00,0.00,VWS V14.01,2013-04-18 08:56:00,
2013-04-18 02:01:00,34.2,27.4,30.43,NNE,17,5.0,8.0,76,0.00,,---,0.00,0.00,VWS V14.01,2013-04-18 09:01:00,
2013-04-18 02:06:00,34.2,27.8,30.43,North,355,6.0,8.0,77,0.00,,---,0.00,0.00,VWS V14.01,2013-04-18 09:06:00,
2013-04-18 02:11:00,34.1,27.7,30.44,North,350,4.0,9.0,77,0.00,,---,0.00,0.00,VWS V14.01,2013-04-18 09:11:00,
2013-04-18 02:16:00,34.1,27.7,30.43,NNE,24,3.0,9.0,77,0.00,,---,0.00,0.00,VWS V14.01,2013-04-18 09:16:00,
2013-04-18 02:21:00,34.1,27.7,30.43,North,5,6.0,9.0,77,0.00,,---,0.00,0.00,VWS V14.01,2013-04-18 09:21:00,
2013-04-18 02:26:00,34.0,27.6,30.43,North,350,5.0,9.0,77,0.00,,---,0.00,0.00,VWS V14.01,2013-04-18 09:26:00,
2013-04-18 02:31:00,34.0,27.9,30.43,NNW,342,7.0,8.0,78,0.00,,---,0.00,0.00,VWS V14.01,2013-04-18 09:31:00,
2013-04-18 02:36:00,34.0,27.9,30.43,North,11,4.0,8.0,78,0.00,,---,0.00,0.00,VWS V14.01,2013-04-18 09:36:00,
2013-04-18 02:41:00,33.9,27.8,30.43,North,9,4.0,8.0,78,0.00,,---,0.00,0.00,VWS V14.01,2013-04-18 09:41:00,
2013-04-18 02:47:00,34.0,27.9,30.43,North,349,7.0,8.0,78,0.00,,---,0.00,0.00,VWS V14.01,2013-04-18 09:47:00,
2013-04-18 02:52:00,34.0,28.2,30.43,NNE,26,4.0,9.0,79,0.00,,---,0.00,0.00,VWS V14.01,2013-04-18 09:52:00,
2013-04-18 02:57:00,34.1,28.3,30.43,NE,38,3.0,9.0,79,0.00,,---,0.00,0.00,VWS V14.01,2013-04-18 09:57:00,
2013-04-18 03:02:00,34.2,28.4,30.43,North,5,6.0,8.0,79,0.00,,---,0.00,0.00,VWS V14.01,2013-04-18 10:02:00,
2013-04-18 03:07:00,34.4,28.6,30.43,NE,34,2.0,9.0,79,0.00,,---,0.00,0.00,VWS V14.01,2013-04-18 10:07:00,
2013-04-18 03:11:00,34.6,28.8,30.43,NE,38,5.0,9.0,79,0.00,,---,0.00,0.00,VWS V14.01,2013-04-18 10:11:00,
2013-04-18 03:16:00,34.7,28.5,30.43,North,5,5.0,9.0,78,0.00,,---,0.00,0.00,VWS V14.01,2013-04-18 10:16:00,
2013-04-18 03:21:00,34.8,28.6,30.43,NNE,20,4.0,9.0,78,0.00,,---,0.00,0.00,VWS V14.01,2013-04-18 10:21:00,
2013-04-18 03:26:00,35.0,28.9,30.43,NNE,19,6.0,9.0,78,0.00,,---,0.00,0.00,VWS V14.01,2013-04-18 10:26:00,
2013-04-18 03:31:00,35.0,28.9,30.42,NNE,22,4.0,6.0,78,0.00,,---,0.00,0.00,VWS V14.01,2013-04-18 10:31:00,
2013-04-18 03:36:00,35.1,28.9,30.42,NNE,12,6.0,8.0,78,0.00,,---,0.00,0.00,VWS V14.01,2013-04-18 10:36:00,
2013-04-18 03:41:00,35.2,29.0,30.42,NNE,13,4.0,10.0,78,0.00,,---,0.00,0.00,VWS V14.01,2013-04-18 10:41:00,
2013-04-18 03:46:00,35.3,28.8,30.43,North,360,4.0,10.0,77,0.00,,---,0.00,0.00,VWS V14.01,2013-04-18 10:46:00,
2013-04-18 03:51:00,35.3,28.8,30.43,NE,40,4.0,10.0,77,0.00,,---,0.00,0.00,VWS V14.01,2013-04-18 10:51:00,
2013-04-18 03:57:00,35.4,28.9,30.42,NNE,12,5.0,10.0,77,0.00,,---,0.00,0.00,VWS V14.01,2013-04-18 10:57:00,
2013-04-18 04:02:00,35.5,29.0,30.43,North,5,5.0,7.0,77,0.00,,---,0.00,0.00,VWS V14.01,2013-04-18 11:02:00,
2013-04-18 04:07:00,35.5,29.0,30.43,NNE,28,3.0,7.0,77,0.00,,---,0.00,0.00,VWS V14.01,2013-04-18 11:07:00,
2013-04-18 04:12:00,35.6,29.1,30.43,NNE,18,3.0,7.0,77,0.00,,---,0.00,0.00,VWS V14.01,2013-04-18 11:12:00,
2013-04-18 04:17:00,35.7,29.2,30.43,NNE,16,3.0,7.0,77,0.00,,---,0.00,0.00,VWS V14.01,2013-04-18 11:17:00,
2013-04-18 04:22:00,35.7,29.2,30.43,NNW,342,5.0,7.0,77,0.00,,---,0.00,0.00,VWS V14.01,2013-04-18 11:22:00,
2013-04-18 04:27:00,35.7,28.9,30.43,North,5,4.0,7.0,76,0.00,,---,0.00,0.00,VWS V14.01,2013-04-18 11:27:00,
2013-04-18 04:32:00,35.7,29.2,30.43,NNE,17,5.0,8.0,77,0.00,,---,0.00,0.00,VWS V14.01,2013-04-18 11:32:00,
2013-04-18 04:37:00,35.7,29.2,30.43,NNE,23,4.0,8.0,77,0.00,,---,0.00,0.00,VWS V14.01,2013-04-18 11:37:00,
2013-04-18 04:42:00,35.7,28.9,30.43,NNE,17,6.0,8.0,76,0.00,,---,0.00,0.00,VWS V14.01,2013-04-18 11:42:00,
2013-04-18 04:47:00,35.7,29.2,30.43,North,360,3.0,9.0,77,0.00,,---,0.00,0.00,VWS V14.01,2013-04-18 11:47:00,
2013-04-18 04:52:00,35.6,29.1,30.43,North,360,4.0,9.0,77,0.00,,---,0.00,0.00,VWS V14.01,2013-04-18 11:52:00,
2013-04-18 04:57:00,35.5,29.0,30.43,NNE,22,4.0,9.0,77,0.00,,---,0.00,0.00,VWS V14.01,2013-04-18 11:57:00,
2013-04-18 05:03:00,35.5,29.0,30.43,NNE,24,5.0,5.0,77,0.00,,---,0.00,0.00,VWS V14.01,2013-04-18 12:03:00,
2013-04-18 05:08:00,35.4,29.2,30.43,North,10,3.0,6.0,78,0.00,,---,0.00,0.00,VWS V14.01,2013-04-18 12:08:00,
2013-04-18 05:13:00,35.4,29.2,30.43,NE,42,3.0,7.0,78,0.00,,---,0.00,0.00,VWS V14.01,2013-04-18 12:13:00,
2013-04-18 05:18:00,35.4,29.2,30.43,NNE,13,5.0,7.0,78,0.00,,---,0.00,0.00,VWS V14.01,2013-04-18 12:18:00,
2013-04-18 05:23:00,35.3,29.1,30.42,NNW,347,7.0,7.0,78,0.00,,---,0.00,0.00,VWS V14.01,2013-04-18 12:23:00,
2013-04-18 05:28:00,35.2,29.0,30.42,NNW,346,1.0,7.0,78,0.00,,---,0.00,0.00,VWS V14.01,2013-04-18 12:28:00,
2013-04-18 05:33:00,35.1,28.6,30.42,NW,309,3.0,6.0,77,0.00,,---,0.00,0.00,VWS V14.01,2013-04-18 12:33:00,
2013-04-18 05:38:00,34.9,28.8,30.42,North,355,3.0,6.0,78,0.00,,---,0.00,0.00,VWS V14.01,2013-04-18 12:38:00,
2013-04-18 05:43:00,34.7,28.5,30.42,North,11,2.0,7.0,78,0.00,,---,0.00,0.00,VWS V14.01,2013-04-18 12:43:00,
2013-04-18 05:48:00,34.6,28.8,30.43,North,355,3.0,7.0,79,0.00,,---,0.00,0.00,VWS V14.01,2013-04-18 12:48:00,
2013-04-18 05:53:00,34.5,28.7,30.42,NNE,26,2.0,7.0,79,0.00,,---,0.00,0.00,VWS V14.01,2013-04-18 12:53:00,
2013-04-18 05:58:00,34.5,28.7,30.42,NNW,346,0.0,7.0,79,0.00,,---,0.00,0.00,VWS V14.01,2013-04-18 12:58:00,
2013-04-18 06:03:00,34.5,29.0,30.42,North,355,4.0,5.0,80,0.00,,---,0.00,0.00,VWS V14.01,2013-04-18 13:03:00,
2013-04-18 06:08:00,34.5,29.0,30.42,NNE,13,4.0,6.0,80,0.00,,---,0.00,0.00,VWS V14.01,2013-04-18 13:08:00,
2013-04-18 06:13:00,34.5,29.0,30.42,North,5,1.0,7.0,80,0.00,,---,0.00,0.00,VWS V14.01,2013-04-18 13:13:00,
2013-04-18 06:18:00,34.6,29.1,30.42,NE,41,3.0,7.0,80,0.00,,---,0.00,0.00,VWS V14.01,2013-04-18 13:18:00,
2013-04-18 06:23:00,34.6,29.1,30.42,North,355,5.0,7.0,80,0.00,,---,0.00,7.00,VWS V14.01,2013-04-18 13:23:00,
2013-04-18 06:28:00,34.6,28.8,30.42,North,355,3.0,7.0,79,0.00,,---,0.00,11.00,VWS V14.01,2013-04-18 13:28:00,
2013-04-18 06:33:00,34.6,28.8,30.42,North,355,2.0,6.0,79,0.00,,---,0.00,14.00,VWS V14.01,2013-04-18 13:33:00,
2013-04-18 06:38:00,34.6,28.8,30.42,NE,34,5.0,7.0,79,0.00,,---,0.00,19.00,VWS V14.01,2013-04-18 13:38:00,
2013-04-18 06:43:00,34.6,29.1,30.42,NNW,346,3.0,7.0,80,0.00,,---,0.00,23.00,VWS V14.01,2013-04-18 13:43:00,
2013-04-18 06:47:00,34.6,29.1,30.42,NE,38,6.0,7.0,80,0.00,,---,0.00,30.00,VWS V14.01,2013-04-18 13:47:00,
2013-04-18 06:52:00,34.7,28.9,30.43,NNE,32,3.0,7.0,79,0.00,,---,0.00,40.00,VWS V14.01,2013-04-18 13:52:00,
2013-04-18 06:58:00,34.8,29.0,30.43,North,11,4.0,7.0,79,0.00,,---,0.00,44.00,VWS V14.01,2013-04-18 13:58:00,
2013-04-18 07:02:00,35.0,29.2,30.43,NNE,32,4.0,5.0,79,0.00,,---,0.00,47.00,VWS V14.01,2013-04-18 14:02:00,
2013-04-18 07:07:00,35.2,29.4,30.43,North,5,2.0,6.0,79,0.00,,---,0.00,53.00,VWS V14.01,2013-04-18 14:07:00,
2013-04-18 07:13:00,35.3,29.5,30.43,NNW,340,3.0,6.0,79,0.00,,---,0.00,56.00,VWS V14.01,2013-04-18 14:13:00,
2013-04-18 07:17:00,35.5,29.6,30.43,NE,48,2.0,6.0,79,0.00,,---,0.00,65.00,VWS V14.01,2013-04-18 14:17:00,
2013-04-18 07:22:00,35.8,29.9,30.43,NNE,19,2.0,6.0,79,0.00,,---,0.00,79.00,VWS V14.01,2013-04-18 14:22:00,
2013-04-18 07:27:00,36.1,29.9,30.43,NE,36,4.0,7.0,78,0.00,,---,0.00,72.00,VWS V14.01,2013-04-18 14:27:00,
2013-04-18 07:32:00,36.4,29.9,30.43,North,5,4.0,7.0,77,0.00,,---,0.00,63.00,VWS V14.01,2013-04-18 14:32:00,
2013-04-18 07:37:00,36.5,29.7,30.43,NNE,27,3.0,7.0,76,0.00,,---,0.00,62.00,VWS V14.01,2013-04-18 14:37:00,
2013-04-18 07:42:00,36.6,29.4,30.43,North,5,5.0,7.0,75,0.00,,---,0.00,35.00,VWS V14.01,2013-04-18 14:42:00,
2013-04-18 07:47:00,36.6,29.4,30.43,NNE,20,6.0,8.0,75,0.00,,---,0.00,44.00,VWS V14.01,2013-04-18 14:47:00,
2013-04-18 07:52:00,36.6,29.4,30.43,NNE,16,3.0,8.0,75,0.00,,---,0.00,204.00,VWS V14.01,2013-04-18 14:52:00,
2013-04-18 07:57:00,36.6,29.8,30.43,NNE,30,2.0,8.0,76,0.00,,---,0.00,248.00,VWS V14.01,2013-04-18 14:57:00,
2013-04-18 08:02:00,36.7,29.9,30.43,NNE,22,4.0,7.0,76,0.00,,---,0.00,100.00,VWS V14.01,2013-04-18 15:02:00,
2013-04-18 08:07:00,36.9,29.7,30.43,ENE,57,5.0,7.0,75,0.00,,---,0.00,35.00,VWS V14.01,2013-04-18 15:07:00,
2013-04-18 08:12:00,37.3,29.8,30.43,ENE,57,3.0,7.0,74,0.00,,---,0.00,35.00,VWS V14.01,2013-04-18 15:12:00,
2013-04-18 08:17:00,37.8,30.3,30.43,NNE,21,4.0,7.0,74,0.00,,---,0.00,35.00,VWS V14.01,2013-04-18 15:17:00,
2013-04-18 08:22:00,38.7,30.8,30.43,North,9,3.0,7.0,73,0.00,,---,0.00,42.00,VWS V14.01,2013-04-18 15:22:00,
2013-04-18 08:27:00,39.4,30.4,30.43,NNE,24,3.0,8.0,70,0.00,,---,0.00,37.00,VWS V14.01,2013-04-18 15:27:00,
2013-04-18 08:32:00,40.1,31.1,30.43,NNE,14,4.0,5.0,70,0.00,,---,0.00,37.00,VWS V14.01,2013-04-18 15:32:00,
2013-04-18 08:37:00,40.5,30.8,30.43,North,9,4.0,7.0,68,0.00,,---,0.00,40.00,VWS V14.01,2013-04-18 15:37:00,
2013-04-18 08:42:00,40.9,31.2,30.43,North,5,2.0,7.0,68,0.00,,---,0.00,114.00,VWS V14.01,2013-04-18 15:42:00,
2013-04-18 08:47:00,41.2,31.1,30.43,NNE,14,3.0,7.0,67,0.00,,---,0.00,237.00,VWS V14.01,2013-04-18 15:47:00,
2013-04-18 08:52:00,41.4,30.9,30.43,NNE,12,0.0,7.0,66,0.00,,---,0.00,139.00,VWS V14.01,2013-04-18 15:52:00,
2013-04-18 08:57:00,41.5,30.6,30.43,North,5,3.0,7.0,65,0.00,,---,0.00,49.00,VWS V14.01,2013-04-18 15:57:00,
2013-04-18 09:02:00,41.3,30.4,30.43,North,355,1.0,5.0,65,0.00,,---,0.00,213.00,VWS V14.01,2013-04-18 16:02:00,
2013-04-18 09:07:00,41.5,31.4,30.43,NNE,22,3.0,5.0,67,0.00,,---,0.00,464.00,VWS V14.01,2013-04-18 16:07:00,
2013-04-18 09:12:00,41.6,31.1,30.43,North,5,1.0,5.0,66,0.00,,---,0.00,480.00,VWS V14.01,2013-04-18 16:12:00,
2013-04-18 09:17:00,42.0,30.7,30.43,North,355,3.0,5.0,64,0.00,,---,0.00,492.00,VWS V14.01,2013-04-18 16:17:00,
2013-04-18 09:22:00,42.2,31.3,30.43,NW,319,1.0,7.0,65,0.00,,---,0.00,510.00,VWS V14.01,2013-04-18 16:22:00,
2013-04-18 09:27:00,42.3,30.6,30.43,NNE,32,4.0,7.0,63,0.00,,---,0.00,526.00,VWS V14.01,2013-04-18 16:27:00,
2013-04-18 09:32:00,42.4,30.3,30.43,North,10,3.0,5.0,62,0.00,,---,0.00,543.00,VWS V14.01,2013-04-18 16:32:00,
2013-04-18 09:37:00,42.6,30.9,30.43,NNE,17,3.0,7.0,63,0.00,,---,0.00,557.00,VWS V14.01,2013-04-18 16:37:00,
2013-04-18 09:42:00,43.0,31.3,30.43,NNE,16,3.0,7.0,63,0.00,,---,0.00,568.00,VWS V14.01,2013-04-18 16:42:00,
2013-04-18 09:47:00,43.4,31.3,30.43,SW,227,4.0,7.0,62,0.00,,---,0.00,578.00,VWS V14.01,2013-04-18 16:47:00,
2013-04-18 09:52:00,43.7,31.5,30.43,NNE,15,1.0,7.0,62,0.00,,---,0.00,584.00,VWS V14.01,2013-04-18 16:52:00,
2013-04-18 09:57:00,43.9,30.9,30.43,ENE,61,4.0,7.0,60,0.00,,---,0.00,582.00,VWS V14.01,2013-04-18 16:57:00,
2013-04-18 10:02:00,44.1,31.1,30.43,NNE,13,0.0,3.0,60,0.00,,---,0.00,566.00,VWS V14.01,2013-04-18 17:02:00,
2013-04-18 10:07:00,44.2,31.6,30.43,ENE,69,3.0,4.0,61,0.00,,---,0.00,640.00,VWS V14.01,2013-04-18 17:07:00,
2013-04-18 10:12:00,44.4,31.4,30.43,WSW,238,2.0,5.0,60,0.00,,---,0.00,555.00,VWS V14.01,2013-04-18 17:12:00,
2013-04-18 10:17:00,44.7,31.7,30.43,ENE,66,1.0,5.0,60,0.00,,---,0.00,666.00,VWS V14.01,2013-04-18 17:17:00,
2013-04-18 10:22:00,44.9,31.9,30.43,ENE,71,3.0,5.0,60,0.00,,---,0.00,679.00,VWS V14.01,2013-04-18 17:22:00,
2013-04-18 10:27:00,45.3,31.4,30.43,WSW,254,0.0,5.0,58,0.00,,---,0.00,689.00,VWS V14.01,2013-04-18 17:27:00,
2013-04-18 10:32:00,45.9,31.5,30.43,SSE,168,0.0,3.0,57,0.00,,---,0.00,671.00,VWS V14.01,2013-04-18 17:32:00,
2013-04-18 10:37:00,46.6,32.2,30.43,West,279,0.0,6.0,57,0.00,,---,0.00,712.00,VWS V14.01,2013-04-18 17:37:00,
2013-04-18 10:42:00,46.8,32.0,30.43,SW,227,1.0,6.0,56,0.00,,---,0.00,719.00,VWS V14.01,2013-04-18 17:42:00,
2013-04-18 10:47:00,47.1,31.8,30.42,SW,215,2.0,6.0,55,0.00,,---,0.00,721.00,VWS V14.01,2013-04-18 17:47:00,
2013-04-18 10:52:00,47.3,32.8,30.43,West,264,0.0,6.0,57,0.00,,---,0.00,733.00,VWS V14.01,2013-04-18 17:52:00,
2013-04-18 10:57:00,47.9,33.4,30.43,West,281,0.0,6.0,57,0.00,,---,0.00,756.00,VWS V14.01,2013-04-18 17:57:00,
2013-04-18 11:02:00,48.6,33.2,30.43,NW,320,3.0,5.0,55,0.00,,---,0.00,751.00,VWS V14.01,2013-04-18 18:02:00,
2013-04-18 11:07:00,49.2,32.8,30.42,WSW,248,0.0,5.0,53,0.00,,---,0.00,772.00,VWS V14.01,2013-04-18 18:07:00,
2013-04-18 11:12:00,49.3,33.8,30.42,ENE,67,1.0,5.0,55,0.00,,---,0.00,782.00,VWS V14.01,2013-04-18 18:12:00,
2013-04-18 11:17:00,49.7,34.2,30.42,ESE,107,2.0,5.0,55,0.00,,---,0.00,779.00,VWS V14.01,2013-04-18 18:17:00,
2013-04-18 11:22:00,50.0,34.0,30.42,East,88,1.0,6.0,54,0.00,,---,0.00,796.00,VWS V14.01,2013-04-18 18:22:00,
2013-04-18 11:27:00,50.3,33.4,30.42,SE,145,0.0,6.0,52,0.00,,---,0.00,798.00,VWS V14.01,2013-04-18 18:27:00,
2013-04-18 11:32:00,50.4,33.9,30.42,ESE,121,0.0,2.0,53,0.00,,---,0.00,814.00,VWS V14.01,2013-04-18 18:32:00,
2013-04-18 11:37:00,50.6,33.2,30.42,WSW,253,2.0,7.0,51,0.00,,---,0.00,823.00,VWS V14.01,2013-04-18 18:37:00,
2013-04-18 11:42:00,50.8,34.3,30.42,SE,126,0.0,7.0,53,0.00,,---,0.00,833.00,VWS V14.01,2013-04-18 18:42:00,
2013-04-18 11:47:00,50.8,33.3,30.42,SSW,209,0.0,7.0,51,0.00,,---,0.00,837.00,VWS V14.01,2013-04-18 18:47:00,
2013-04-18 11:52:00,51.2,34.2,30.42,South,173,4.0,7.0,52,0.00,,---,0.00,844.00,VWS V14.01,2013-04-18 18:52:00,
2013-04-18 11:57:00,51.6,34.1,30.41,WSW,244,2.0,7.0,51,0.00,,---,0.00,828.00,VWS V14.01,2013-04-18 18:57:00,
2013-04-18 12:02:00,51.8,34.3,30.41,SW,234,3.0,3.0,51,0.00,,---,0.00,575.00,VWS V14.01,2013-04-18 19:02:00,
2013-04-18 12:07:00,51.8,33.8,30.41,West,259,1.0,4.0,50,0.00,,---,0.00,578.00,VWS V14.01,2013-04-18 19:07:00,
2013-04-18 12:12:00,51.9,34.8,30.41,WSW,251,1.0,4.0,52,0.00,,---,0.00,742.00,VWS V14.01,2013-04-18 19:12:00,
2013-04-18 12:17:00,52.3,34.2,30.40,SSW,194,2.0,4.0,50,0.00,,---,0.00,874.00,VWS V14.01,2013-04-18 19:17:00,
2013-04-18 12:22:00,52.5,35.4,30.40,SSW,202,2.0,5.0,52,0.00,,---,0.00,882.00,VWS V14.01,2013-04-18 19:22:00,
2013-04-18 12:27:00,53.2,36.0,30.40,NE,35,3.0,6.0,52,0.00,,---,0.00,895.00,VWS V14.01,2013-04-18 19:27:00,
2013-04-18 12:32:00,53.7,36.0,30.40,ENE,66,3.0,3.0,51,0.00,,---,0.00,888.00,VWS V14.01,2013-04-18 19:32:00,
2013-04-18 12:37:00,54.1,35.9,30.40,SSW,212,2.0,3.0,50,0.00,,---,0.00,907.00,VWS V14.01,2013-04-18 19:37:00,
2013-04-18 12:42:00,54.5,35.8,30.40,South,178,2.0,5.0,49,0.00,,---,0.00,828.00,VWS V14.01,2013-04-18 19:42:00,
2013-04-18 12:47:00,55.0,35.7,30.40,WSW,238,4.0,6.0,48,0.00,,---,0.00,893.00,VWS V14.01,2013-04-18 19:47:00,
2013-04-18 12:52:00,54.9,36.1,30.40,SSW,193,3.0,6.0,49,0.00,,---,0.00,904.00,VWS V14.01,2013-04-18 19:52:00,
2013-04-18 12:57:00,55.5,36.2,30.40,WSW,241,5.0,7.0,48,0.00,,---,0.00,933.00,VWS V14.01,2013-04-18 19:57:00,
2013-04-18 13:02:00,55.5,36.2,30.40,ESE,102,1.0,2.0,48,0.00,,---,0.00,932.00,VWS V14.01,2013-04-18 20:02:00,
2013-04-18 13:07:00,55.9,37.0,30.40,East,96,7.0,9.0,49,0.00,,---,0.00,965.00,VWS V14.01,2013-04-18 20:07:00,
2013-04-18 13:12:00,55.5,35.6,30.40,ESE,122,3.0,9.0,47,0.00,,---,0.00,949.00,VWS V14.01,2013-04-18 20:12:00,
2013-04-18 13:17:00,55.4,36.1,30.40,SE,141,1.0,9.0,48,0.00,,---,0.00,916.00,VWS V14.01,2013-04-18 20:17:00,
2013-04-18 13:22:00,55.6,36.2,30.39,SE,142,5.0,9.0,48,0.00,,---,0.00,939.00,VWS V14.01,2013-04-18 20:22:00,
2013-04-18 13:27:00,56.1,38.2,30.39,SE,134,2.0,10.0,51,0.00,,---,0.00,946.00,VWS V14.01,2013-04-18 20:27:00,
2013-04-18 13:32:00,56.7,37.8,30.39,SE,128,8.0,11.0,49,0.00,,---,0.00,983.00,VWS V14.01,2013-04-18 20:32:00,
2013-04-18 13:37:00,56.6,36.6,30.39,SE,138,1.0,11.0,47,0.00,,---,0.00,965.00,VWS V14.01,2013-04-18 20:37:00,
2013-04-18 13:42:00,57.0,39.1,30.39,SE,140,3.0,11.0,51,0.00,,---,0.00,926.00,VWS V14.01,2013-04-18 20:42:00,
2013-04-18 13:47:00,58.1,37.5,30.38,SSE,163,3.0,11.0,46,0.00,,---,0.00,923.00,VWS V14.01,2013-04-18 20:47:00,
2013-04-18 13:52:00,58.3,37.6,30.39,SE,137,3.0,11.0,46,0.00,,---,0.00,193.00,VWS V14.01,2013-04-18 20:52:00,
2013-04-18 13:57:00,57.6,36.4,30.38,SSE,163,3.0,11.0,45,0.00,,---,0.00,953.00,VWS V14.01,2013-04-18 20:57:00,
2013-04-18 14:02:00,57.3,36.7,30.38,ESE,113,3.0,8.0,46,0.00,,---,0.00,789.00,VWS V14.01,2013-04-18 21:02:00,
2013-04-18 14:07:00,57.2,37.7,30.38,SE,128,1.0,8.0,48,0.00,,---,0.00,392.00,VWS V14.01,2013-04-18 21:07:00,
2013-04-18 14:12:00,57.5,37.5,30.39,ESE,113,7.0,10.0,47,0.00,,---,0.00,306.00,VWS V14.01,2013-04-18 21:12:00,
2013-04-18 14:17:00,57.6,37.0,30.38,SSE,152,5.0,10.0,46,0.00,,---,0.00,954.00,VWS V14.01,2013-04-18 21:17:00,
2013-04-18 14:22:00,57.6,37.0,30.38,SSE,163,4.0,10.0,46,0.00,,---,0.00,904.00,VWS V14.01,2013-04-18 21:22:00,
2013-04-18 14:27:00,57.8,37.2,30.38,ESE,103,3.0,10.0,46,0.00,,---,0.00,932.00,VWS V14.01,2013-04-18 21:27:00,
2013-04-18 14:32:00,58.1,39.1,30.38,ESE,111,2.0,7.0,49,0.00,,---,0.00,940.00,VWS V14.01,2013-04-18 21:32:00,
2013-04-18 14:37:00,58.6,37.9,30.38,SE,136,4.0,7.0,46,0.00,,---,0.00,930.00,VWS V14.01,2013-04-18 21:37:00,
2013-04-18 14:42:00,58.8,37.0,30.38,WSW,257,2.0,9.0,44,0.00,,---,0.00,213.00,VWS V14.01,2013-04-18 21:42:00,
2013-04-18 14:47:00,58.4,37.7,30.38,SSE,147,3.0,10.0,46,0.00,,---,0.00,930.00,VWS V14.01,2013-04-18 21:47:00,
2013-04-18 14:52:00,59.1,38.4,30.37,South,188,4.0,10.0,46,0.00,,---,0.00,882.00,VWS V14.01,2013-04-18 21:52:00,
2013-04-18 14:57:00,59.6,37.7,30.37,SW,222,1.0,10.0,44,0.00,,---,0.00,889.00,VWS V14.01,2013-04-18 21:57:00,
2013-04-18 15:02:00,59.9,38.0,30.37,SSW,194,10.0,10.0,44,0.00,,---,0.00,867.00,VWS V14.01,2013-04-18 22:02:00,
2013-04-18 15:07:00,59.9,38.5,30.37,SE,126,8.0,10.0,45,0.00,,---,0.00,870.00,VWS V14.01,2013-04-18 22:07:00,
2013-04-18 15:12:00,60.3,38.9,30.37,SSE,167,6.0,12.0,45,0.00,,---,0.00,846.00,VWS V14.01,2013-04-18 22:12:00,
2013-04-18 15:17:00,60.6,40.3,30.37,SSW,192,5.0,12.0,47,0.00,,---,0.00,805.00,VWS V14.01,2013-04-18 22:17:00,
2013-04-18 15:22:00,61.5,39.4,30.36,SSE,157,3.0,12.0,44,0.00,,---,0.00,765.00,VWS V14.01,2013-04-18 22:22:00,
2013-04-18 15:27:00,62.0,39.9,30.36,SW,230,2.0,12.0,44,0.00,,---,0.00,777.00,VWS V14.01,2013-04-18 22:27:00,
2013-04-18 15:32:00,61.4,38.7,30.36,SSE,155,5.0,7.0,43,0.00,,---,0.00,724.00,VWS V14.01,2013-04-18 22:32:00,
2013-04-18 15:37:00,60.9,39.4,30.36,SE,138,5.0,10.0,45,0.00,,---,0.00,731.00,VWS V14.01,2013-04-18 22:37:00,
2013-04-18 15:42:00,60.9,38.9,30.36,South,188,3.0,10.0,44,0.00,,---,0.00,675.00,VWS V14.01,2013-04-18 22:42:00,
2013-04-18 15:47:00,60.6,38.6,30.36,SSW,198,4.0,10.0,44,0.00,,---,0.00,394.00,VWS V14.01,2013-04-18 22:47:00,
2013-04-18 15:52:00,60.2,38.8,30.35,SSE,153,7.0,14.0,45,0.00,,---,0.00,642.00,VWS V14.01,2013-04-18 22:52:00,
2013-04-18 15:57:00,60.2,39.9,30.35,SSE,151,4.0,14.0,47,0.00,,---,0.00,589.00,VWS V14.01,2013-04-18 22:57:00,
2013-04-18 16:02:00,60.5,39.1,30.35,SSE,161,2.0,12.0,45,0.00,,---,0.00,592.00,VWS V14.01,2013-04-18 23:02:00,
2013-04-18 16:07:00,60.8,39.3,30.35,SSE,167,6.0,12.0,45,0.00,,---,0.00,577.00,VWS V14.01,2013-04-18 23:07:00,
2013-04-18 16:12:00,60.8,38.8,30.35,SSW,209,4.0,12.0,44,0.00,,---,0.00,550.00,VWS V14.01,2013-04-18 23:12:00,
2013-04-18 16:17:00,60.5,38.5,30.34,SSE,151,3.0,12.0,44,0.00,,---,0.00,610.00,VWS V14.01,2013-04-18 23:17:00,
2013-04-18 16:22:00,60.6,38.6,30.34,WSW,257,4.0,12.0,44,0.00,,---,0.00,557.00,VWS V14.01,2013-04-18 23:22:00,
2013-04-18 16:27:00,60.0,38.6,30.34,South,191,8.0,12.0,45,0.00,,---,0.00,541.00,VWS V14.01,2013-04-18 23:27:00,
2013-04-18 16:32:00,59.8,39.0,30.34,South,184,6.0,9.0,46,0.00,,---,0.00,475.00,VWS V14.01,2013-04-18 23:32:00,
2013-04-18 16:37:00,59.8,39.0,30.34,SSE,163,6.0,9.0,46,0.00,,---,0.00,515.00,VWS V14.01,2013-04-18 23:37:00,
2013-04-18 16:42:00,59.8,39.5,30.34,South,172,1.0,9.0,47,0.00,,---,0.00,364.00,VWS V14.01,2013-04-18 23:42:00,
2013-04-18 16:47:00,59.3,39.1,30.33,SW,221,4.0,9.0,47,0.00,,---,0.00,369.00,VWS V14.01,2013-04-18 23:47:00,
2013-04-18 16:52:00,58.7,38.5,30.33,WSW,244,3.0,9.0,47,0.00,,---,0.00,457.00,VWS V14.01,2013-04-18 23:52:00,
2013-04-18 16:57:00,59.0,38.8,30.34,South,169,3.0,9.0,47,0.00,,---,0.00,459.00,VWS V14.01,2013-04-18 23:57:00,
2013-04-18 17:02:00,59.2,39.5,30.34,SSE,168,6.0,8.0,48,0.00,,---,0.00,392.00,VWS V14.01,2013-04-19 00:02:00,
2013-04-18 17:07:00,59.6,39.4,30.34,WSW,248,2.0,8.0,47,0.00,,---,0.00,462.00,VWS V14.01,2013-04-19 00:07:00,
2013-04-18 17:12:00,59.2,39.5,30.34,South,182,6.0,8.0,48,0.00,,---,0.00,482.00,VWS V14.01,2013-04-19 00:12:00,
2013-04-18 17:17:00,59.3,40.2,30.34,SSE,155,4.0,9.0,49,0.00,,---,0.00,464.00,VWS V14.01,2013-04-19 00:17:00,
2013-04-18 17:22:00,59.9,39.1,30.34,SSE,156,7.0,9.0,46,0.00,,---,0.00,432.00,VWS V14.01,2013-04-19 00:22:00,
2013-04-18 17:27:00,59.9,39.6,30.34,South,173,8.0,9.0,47,0.00,,---,0.00,401.00,VWS V14.01,2013-04-19 00:27:00,
2013-04-18 17:32:00,60.0,39.2,30.34,SSW,211,6.0,7.0,46,0.00,,---,0.00,320.00,VWS V14.01,2013-04-19 00:32:00,
2013-04-18 17:37:00,59.3,38.5,30.34,SSW,201,7.0,10.0,46,0.00,,---,0.00,281.00,VWS V14.01,2013-04-19 00:37:00,
2013-04-18 17:42:00,58.5,38.4,30.34,SW,218,7.0,13.0,47,0.00,,---,0.00,250.00,VWS V14.01,2013-04-19 00:42:00,
2013-04-18 17:47:00,57.2,37.7,30.34,SW,232,3.0,13.0,48,0.00,,---,0.00,211.00,VWS V14.01,2013-04-19 00:47:00,
2013-04-18 17:52:00,56.9,38.5,30.34,West,266,5.0,13.0,50,0.00,,---,0.00,255.00,VWS V14.01,2013-04-19 00:52:00,
2013-04-18 17:57:00,56.7,38.8,30.34,SSW,195,2.0,13.0,51,0.00,,---,0.00,274.00,VWS V14.01,2013-04-19 00:57:00,
2013-04-18 18:02:00,56.5,39.1,30.34,SE,139,4.0,7.0,52,0.00,,---,0.00,274.00,VWS V14.01,2013-04-19 01:02:00,
2013-04-18 18:07:00,56.7,38.8,30.34,South,190,6.0,9.0,51,0.00,,---,0.00,260.00,VWS V14.01,2013-04-19 01:07:00,
2013-04-18 18:12:00,56.6,38.7,30.34,SSW,203,5.0,9.0,51,0.00,,---,0.00,199.00,VWS V14.01,2013-04-19 01:12:00,
2013-04-18 18:17:00,56.0,39.6,30.34,SSW,193,6.0,10.0,54,0.00,,---,0.00,163.00,VWS V14.01,2013-04-19 01:17:00,
2013-04-18 18:22:00,55.7,39.3,30.34,West,271,3.0,10.0,54,0.00,,---,0.00,151.00,VWS V14.01,2013-04-19 01:22:00,
2013-04-18 18:27:00,55.3,39.0,30.34,SW,219,4.0,10.0,54,0.00,,---,0.00,127.00,VWS V14.01,2013-04-19 01:27:00,
2013-04-18 18:32:00,55.0,39.2,30.34,South,190,2.0,4.0,55,0.00,,---,0.00,97.00,VWS V14.01,2013-04-19 01:32:00,
2013-04-18 18:37:00,54.3,39.0,30.34,WSW,247,5.0,7.0,56,0.00,,---,0.00,69.00,VWS V14.01,2013-04-19 01:37:00,
2013-04-18 18:42:00,53.6,38.3,30.34,SW,219,5.0,7.0,56,0.00,,---,0.00,58.00,VWS V14.01,2013-04-19 01:42:00,
2013-04-18 18:47:00,53.2,38.4,30.34,SW,229,3.0,7.0,57,0.00,,---,0.00,54.00,VWS V14.01,2013-04-19 01:47:00,
2013-04-18 18:52:00,53.0,38.6,30.34,SSW,209,6.0,7.0,58,0.00,,---,0.00,54.00,VWS V14.01,2013-04-19 01:52:00,
2013-04-18 18:57:00,52.7,38.8,30.34,SW,222,2.0,7.0,59,0.00,,---,0.00,53.00,VWS V14.01,2013-04-19 01:57:00,
2013-04-18 19:02:00,52.4,38.5,30.34,WSW,239,0.0,2.0,59,0.00,,---,0.00,46.00,VWS V14.01,2013-04-19 02:02:00,
2013-04-18 19:07:00,52.1,38.7,30.33,SW,228,2.0,5.0,60,0.00,,---,0.00,28.00,VWS V14.01,2013-04-19 02:07:00,
2013-04-18 19:12:00,51.9,38.5,30.33,SW,219,1.0,5.0,60,0.00,,---,0.00,18.00,VWS V14.01,2013-04-19 02:12:00,
2013-04-18 19:17:00,51.9,39.3,30.33,SW,227,0.0,5.0,62,0.00,,---,0.00,16.00,VWS V14.01,2013-04-19 02:17:00,
2013-04-18 19:22:00,51.9,38.9,30.33,SSW,209,0.0,5.0,61,0.00,,---,0.00,18.00,VWS V14.01,2013-04-19 02:22:00,
2013-04-18 19:27:00,51.8,39.2,30.33,SW,221,0.0,5.0,62,0.00,,---,0.00,18.00,VWS V14.01,2013-04-19 02:27:00,
2013-04-18 19:32:00,51.7,39.1,30.33,WSW,243,2.0,3.0,62,0.00,,---,0.00,12.00,VWS V14.01,2013-04-19 02:32:00,
2013-04-18 19:37:00,51.5,38.9,30.33,SW,231,2.0,4.0,62,0.00,,---,0.00,11.00,VWS V14.01,2013-04-19 02:37:00,
2013-04-18 19:42:00,51.2,39.5,30.33,SW,217,2.0,4.0,64,0.00,,---,0.00,9.00,VWS V14.01,2013-04-19 02:42:00,
2013-04-18 19:47:00,50.9,39.2,30.32,SW,232,2.0,4.0,64,0.00,,---,0.00,5.00,VWS V14.01,2013-04-19 02:47:00,
2013-04-18 19:52:00,50.6,39.3,30.33,SW,229,2.0,4.0,65,0.00,,---,0.00,0.00,VWS V14.01,2013-04-19 02:52:00,
2013-04-18 19:57:00,50.3,39.0,30.33,West,271,1.0,6.0,65,0.00,,---,0.00,0.00,VWS V14.01,2013-04-19 02:57:00,
2013-04-18 20:02:00,50.1,38.8,30.32,SW,217,0.0,1.0,65,0.00,,---,0.00,0.00,VWS V14.01,2013-04-19 03:02:00,
2013-04-18 20:07:00,49.9,39.0,30.32,SW,225,1.0,2.0,66,0.00,,---,0.00,0.00,VWS V14.01,2013-04-19 03:07:00,
2013-04-18 20:12:00,49.7,38.8,30.32,SSW,196,0.0,3.0,66,0.00,,---,0.00,0.00,VWS V14.01,2013-04-19 03:12:00,
2013-04-18 20:17:00,49.7,39.2,30.32,SSE,156,3.0,3.0,67,0.00,,---,0.00,0.00,VWS V14.01,2013-04-19 03:17:00,
2013-04-18 20:22:00,49.6,39.1,30.32,South,171,0.0,3.0,67,0.00,,---,0.00,0.00,VWS V14.01,2013-04-19 03:22:00,
2013-04-18 20:27:00,49.4,38.9,30.33,SSW,203,0.0,3.0,67,0.00,,---,0.00,0.00,VWS V14.01,2013-04-19 03:27:00,
2013-04-18 20:32:00,49.2,39.1,30.33,SSW,198,1.0,2.0,68,0.00,,---,0.00,0.00,VWS V14.01,2013-04-19 03:32:00,
2013-04-18 20:37:00,49.0,38.9,30.33,SW,216,1.0,4.0,68,0.00,,---,0.00,0.00,VWS V14.01,2013-04-19 03:37:00,
2013-04-18 20:42:00,48.9,38.8,30.33,SW,216,0.0,4.0,68,0.00,,---,0.00,0.00,VWS V14.01,2013-04-19 03:42:00,
2013-04-18 20:47:00,48.8,39.1,30.33,SW,223,0.0,4.0,69,0.00,,---,0.00,0.00,VWS V14.01,2013-04-19 03:47:00,
2013-04-18 20:52:00,48.6,38.9,30.33,SW,223,2.0,4.0,69,0.00,,---,0.00,0.00,VWS V14.01,2013-04-19 03:52:00,
2013-04-18 20:57:00,48.3,39.0,30.34,SW,223,1.0,4.0,70,0.00,,---,0.00,0.00,VWS V14.01,2013-04-19 03:57:00,
2013-04-18 21:01:00,47.9,38.6,30.33,WSW,254,2.0,2.0,70,0.00,,---,0.00,0.00,VWS V14.01,2013-04-19 04:01:00,
2013-04-18 21:06:00,47.3,38.7,30.33,West,273,2.0,2.0,72,0.00,,---,0.00,0.00,VWS V14.01,2013-04-19 04:06:00,
2013-04-18 21:11:00,46.9,38.7,30.33,NW,323,2.0,3.0,73,0.00,,---,0.00,0.00,VWS V14.01,2013-04-19 04:11:00,
2013-04-18 21:16:00,46.7,38.5,30.33,NW,323,0.0,3.0,73,0.00,,---,0.00,0.00,VWS V14.01,2013-04-19 04:16:00,
2013-04-18 21:21:00,46.7,38.9,30.33,North,9,2.0,5.0,74,0.00,,---,0.00,0.00,VWS V14.01,2013-04-19 04:21:00,
2013-04-18 21:26:00,46.8,39.0,30.33,North,5,1.0,5.0,74,0.00,,---,0.00,0.00,VWS V14.01,2013-04-19 04:26:00,
2013-04-18 21:31:00,46.9,39.1,30.33,NNE,26,1.0,2.0,74,0.00,,---,0.00,0.00,VWS V14.01,2013-04-19 04:31:00,
2013-04-18 21:36:00,47.1,38.9,30.33,NNE,26,0.0,2.0,73,0.00,,---,0.00,0.00,VWS V14.01,2013-04-19 04:36:00,
2013-04-18 21:41:00,47.1,38.9,30.33,WNW,293,1.0,2.0,73,0.00,,---,0.00,0.00,VWS V14.01,2013-04-19 04:41:00,
2013-04-18 21:46:00,46.9,38.7,30.33,WNW,292,1.0,2.0,73,0.00,,---,0.00,0.00,VWS V14.01,2013-04-19 04:46:00,
2013-04-18 21:51:00,46.6,38.8,30.33,WNW,293,1.0,2.0,74,0.00,,---,0.00,0.00,VWS V14.01,2013-04-19 04:51:00,
2013-04-18 21:56:00,46.4,38.9,30.32,NNW,336,0.0,2.0,75,0.00,,---,0.00,0.00,VWS V14.01,2013-04-19 04:56:00,
2013-04-18 22:01:00,46.2,38.7,30.32,NW,304,2.0,3.0,75,0.00,,---,0.00,0.00,VWS V14.01,2013-04-19 05:01:00,
2013-04-18 22:06:00,46.1,38.6,30.33,NNW,327,0.0,3.0,75,0.00,,---,0.00,0.00,VWS V14.01,2013-04-19 05:06:00,
2013-04-18 22:11:00,46.0,38.9,30.32,North,360,1.0,3.0,76,0.00,,---,0.00,0.00,VWS V14.01,2013-04-19 05:11:00,
2013-04-18 22:16:00,45.9,38.4,30.32,WNW,290,1.0,3.0,75,0.00,,---,0.00,0.00,VWS V14.01,2013-04-19 05:16:00,
2013-04-18 22:21:00,45.6,38.5,30.32,WNW,291,1.0,3.0,76,0.00,,---,0.00,0.00,VWS V14.01,2013-04-19 05:21:00,
2013-04-18 22:26:00,45.5,38.4,30.32,NW,311,2.0,3.0,76,0.00,,---,0.00,0.00,VWS V14.01,2013-04-19 05:26:00,
2013-04-18 22:31:00,45.4,38.3,30.32,NW,310,2.0,2.0,76,0.00,,---,0.00,0.00,VWS V14.01,2013-04-19 05:31:00,
2013-04-18 22:36:00,45.3,38.2,30.32,North,5,1.0,3.0,76,0.00,,---,0.00,0.00,VWS V14.01,2013-04-19 05:36:00,
2013-04-18 22:41:00,45.4,38.3,30.32,North,10,2.0,4.0,76,0.00,,---,0.00,0.00,VWS V14.01,2013-04-19 05:41:00,
2013-04-18 22:46:00,45.5,38.4,30.32,NNE,26,1.0,5.0,76,0.00,,---,0.00,0.00,VWS V14.01,2013-04-19 05:46:00,
2013-04-18 22:51:00,45.6,38.2,30.31,NNW,348,2.0,5.0,75,0.00,,---,0.00,0.00,VWS V14.01,2013-04-19 05:51:00,
2013-04-18 22:56:00,45.6,38.2,30.31,NW,324,3.0,6.0,75,0.00,,---,0.00,0.00,VWS V14.01,2013-04-19 05:56:00,
2013-04-18 23:01:00,45.6,38.2,30.31,NNW,346,2.0,4.0,75,0.00,,---,0.00,0.00,VWS V14.01,2013-04-19 06:01:00,
2013-04-18 23:06:00,45.6,38.2,30.31,North,355,3.0,6.0,75,0.00,,---,0.00,0.00,VWS V14.01,2013-04-19 06:06:00,
2013-04-18 23:11:00,45.6,38.2,30.31,North,5,5.0,6.0,75,0.00,,---,0.00,0.00,VWS V14.01,2013-04-19 06:11:00,
2013-04-18 23:16:00,45.5,38.0,30.31,NNE,13,4.0,6.0,75,0.00,,---,0.00,0.00,VWS V14.01,2013-04-19 06:16:00,
2013-04-18 23:21:00,45.5,38.0,30.30,NNE,15,4.0,6.0,75,0.00,,---,0.00,0.00,VWS V14.01,2013-04-19 06:21:00,
2013-04-18 23:26:00,45.4,38.0,30.30,North,360,2.0,6.0,75,0.00,,---,0.00,0.00,VWS V14.01,2013-04-19 06:26:00,
2013-04-18 23:31:00,45.3,37.9,30.31,North,10,2.0,2.0,75,0.00,,---,0.00,0.00,VWS V14.01,2013-04-19 06:31:00,
2013-04-18 23:36:00,45.2,37.8,30.31,North,11,2.0,4.0,75,0.00,,---,0.00,0.00,VWS V14.01,2013-04-19 06:36:00,
2013-04-18 23:41:00,45.1,38.0,30.30,NNE,32,2.0,5.0,76,0.00,,---,0.00,0.00,VWS V14.01,2013-04-19 06:41:00,
2013-04-18 23:46:00,45.1,37.7,30.31,NE,42,3.0,5.0,75,0.00,,---,0.00,0.00,VWS V14.01,2013-04-19 06:46:00,
2013-04-18 23:51:00,45.1,37.7,30.30,NNE,31,1.0,5.0,75,0.00,,---,0.00,0.00,VWS V14.01,2013-04-19 06:51:00,
2013-04-18 23:56:00,45.0,37.9,30.30,North,11,2.0,5.0,76,0.00,,---,0.00,0.00,VWS V14.01,2013-04-19 06:56:00,